Location: *
(47.6569°N, 7.4256°E)
Time: 03:57:12
(UTC+00:00)

Cosmos 468 Rocket - Pass Details

Date: 14 December 2019
Orbit: 744 x 780 km, 74.0° (Epoch: 20 January)

Event Time Altitude Azimuth Distance (km) Brightness Sun altitude
Rises 18:34:57 0° 335° (NNW) 3,214 7.5 -28.5°
Reaches altitude 10° 18:37:19 10° 334° (NNW) 2,290 6.7 -28.9°
Enters shadow 18:41:26 55° 312° (NW) 915 4.5 -29.6°
